Home > Weather > Moss > Past weeks

Flag for Norway Past Weather in Moss, Norway — Yesterday and Last 2 Weeks

Now
50 °F

Drizzle. Partly sunny.


Feels Like: 45 °F
Forecast: 49 / 61 °F
Wind: 13 mph from Northeast

Location: Rygge

Current Time: May 24, 2016 at 9:44:35 PM

Latest Report: May 24, 2016 at 8:50 PM


Visibility: N/A

Pressure: 30.07 "Hg

Humidity: 88%

Dew Point: 46 °F

Location of MossLocation

Past Weather in Moss — Graph

°F

Moss Temperature Yesterday

Maximum temperature yesterday: 59 °F (at 11:50 AM)
Minimum temperature yesterday: 54 °F (at 6:20 PM)
Average temperature yesterday: 56 °F

High & Low Weather Summary for the Past Weeks

 TemperatureHumidityPressure
High75 °F (May 10, 3:20 PM)100% (May 17, 3:20 AM)30.21 "Hg (May 17, 3:20 AM)
Low39 °F (May 17, 2:50 AM)25% (May 10, 2:50 PM)29.65 "Hg (May 13, 4:20 PM)
Average53 °F71%29.84 "Hg
* Reported May 9 8:20 PM — May 24 8:20 PM, Moss, Weather by CustomWeather, © 2016

Note: Actual official high and low records may vary slightly from our data, if they occured in-between our weather recording intervals... More about our weather records

Advertising

Moss Weather History for the Previous 24 Hours

Scroll right to see more
 ConditionsComfort  
Time TempWeatherWind HumidityBarometerVisibility
8:20 PM
Tue, May 24
50 °FScattered clouds.13 mph88%30.07 "HgN/A
7:50 PM50 °FRain. Partly sunny.14 mph88%30.07 "HgN/A
7:20 PM52 °FPartly sunny.14 mph77%30.07 "HgN/A
6:50 PM52 °FPartly sunny.14 mph82%30.04 "HgN/A
6:20 PM52 °FOvercast.16 mph82%30.04 "HgN/A
5:50 PM52 °FPartly sunny.16 mph82%30.04 "HgN/A
5:20 PM50 °FPartly sunny.13 mph88%30.04 "HgN/A
4:50 PM50 °FDrizzle. Partly sunny.16 mph88%30.04 "HgN/A
4:20 PM50 °FDrizzle. Partly sunny.18 mph88%30.04 "HgN/A
3:50 PM50 °FPartly sunny.14 mph88%30.04 "HgN/A
3:20 PM50 °FLight rain. Partly sunny.13 mph88%30.04 "HgN/A
2:50 PM50 °FDrizzle. Partly sunny.14 mph82%30.04 "HgN/A
2:20 PM48 °FPartly sunny.16 mph87%30.04 "HgN/A
1:50 PM50 °FBroken clouds.15 mph88%30.07 "HgN/A
1:20 PM48 °FBroken clouds.16 mph94%30.04 "HgN/A
12:50 PM48 °FLight rain. Broken clouds.14 mph87%30.07 "HgN/A
12:20 PM48 °FPartly sunny.14 mph87%30.04 "HgN/A
11:50 AM50 °FPartly sunny.14 mph82%30.04 "HgN/A
11:20 AM50 °FPartly sunny.13 mph88%30.04 "HgN/A
10:50 AM48 °FDrizzle. Partly sunny.13 mph94%30.04 "HgN/A
10:20 AM50 °FLight rain. Partly sunny.14 mph88%30.04 "HgN/A
9:50 AM50 °FDrizzle. Partly sunny.15 mph88%30.04 "HgN/A
9:20 AM50 °FLight rain. Partly sunny.15 mph88%30.01 "HgN/A
8:50 AM52 °FOvercast.14 mph82%30.01 "HgN/A
8:20 AM52 °FOvercast.13 mph82%30.01 "HgN/A
7:50 AM52 °FOvercast.13 mph82%30.01 "HgN/A
7:20 AM52 °FOvercast.13 mph82%29.98 "HgN/A
6:50 AM52 °FOvercast.12 mph82%29.98 "HgN/A
6:20 AM50 °FOvercast.10 mph94%29.98 "HgN/A
4:20 AM52 °FOvercast.9 mph88%29.98 "HgN/A
3:50 AM52 °FOvercast.9 mph94%29.95 "HgN/A
3:20 AM52 °FOvercast.8 mph100%29.95 "HgN/A
2:50 AM54 °FLow clouds.7 mph94%29.95 "HgN/A
2:20 AM54 °FLow clouds.9 mph94%29.95 "HgN/A
1:50 AM54 °FLow clouds.8 mph100%29.95 "HgN/A
1:20 AM55 °FOvercast.5 mph94%29.95 "Hg0 mi
12:50 AM54 °FFog.3 mph100%29.92 "Hg0 mi
12:20 AM54 °FFog.2 mph100%29.92 "Hg0 mi
11:50 PM
Mon, May 23
54 °FFog.3 mph100%29.92 "Hg0 mi
11:20 PM54 °FFog.1 mph100%29.92 "Hg0 mi
10:50 PM54 °FFog.No wind100%29.92 "Hg0 mi
10:20 PM54 °FFog.2 mph100%29.92 "Hg1 mi
9:50 PM54 °FFog.2 mph100%29.89 "Hg1 mi
9:20 PM54 °FLow clouds.2 mph100%29.89 "Hg4 mi
Weather by CustomWeather, © 2016

See weather overviewHow to use our weather pages